Wind_Speed
12 14 14 15 16 16 19 22 25 26 25 23 21 18 17 17 16 14 13 13 12 10 9 8 8 7 6 5 5 4 3 3 3 3 3 3 3 3 2 2 1 1 1 2 3 3 3 3 3 3 3 3 3 4 4 4 4 4 4 4 4 4 5 5 6 6 6 7 8 9 9 10 11 12 12 13 13 13 14 14 14 15 15 15 16
10 12 13 13 13 13 15 18 22 25 25 24 22 20 18 18 18 17 15 15 15 14 13 12 11 10 9 9 8 7 7 6 6 6 6 6 6 5 5 5 5 5 5 5 5 6 6 6 6 6 6 5 5 4 4 4 4 5 5 5 6 6 6 7 7 8 9 9 10 11 12 12 13 14 15 16 16 17 18 18 19 19 19 19 18
7 8 9 10 10 10 12 14 17 22 24 24 23 22 21 20 21 20 18 17 18 18 17 16 15 14 13 13 12 11 10 9 9 9 9 9 8 8 8 8 8 8 8 8 8 9 9 9 9 9 9 9 8 7 7 6 6 6 6 7 7 8 8 9 10 11 12 12 13 14 15 15 16 17 17 18 19 20 21 21 22 22 22 22 22
6 6 6 7 8 9 10 11 13 16 20 23 24 24 24 23 23 23 21 20 20 21 21 19 18 17 17 16 15 14 13 12 12 12 12 11 11 11 11 12 12 13 12 12 11 12 12 12 13 13 12 12 12 11 10 10 9 9 9 9 9 10 10 11 12 13 14 16 17 17 18 19 19 19 20 21 21 22 23 24 24 25 25 25 25
7 7 6 6 7 9 10 10 11 13 15 18 22 25 26 25 25 25 23 23 22 23 24 24 22 20 19 18 18 18 18 16 14 14 14 14 14 14 14 14 15 17 16 15 15 15 15 15 15 15 15 15 14 14 14 13 13 12 12 12 12 13 14 14 15 16 17 18 18 19 20 20 21 22 22 23 23 24 25 26 26 27 27 27 27
9 9 8 8 8 9 10 9 10 12 13 15 18 22 24 25 26 26 26 26 26 24 25 26 26 23 21 21 21 21 22 20 18 17 17 17 17 18 17 17 17 18 17 17 17 16 16 15 15 15 16 17 17 17 16 16 16 16 15 16 16 17 17 18 18 19 20 20 20 21 21 22 23 23 24 24 25 25 26 27 28 28 29 29 29
11 11 11 11 10 11 11 11 11 11 13 14 15 19 22 25 27 28 28 28 28 26 26 26 27 26 25 25 24 24 25 24 23 22 19 18 19 20 19 18 19 19 18 17 18 18 17 16 16 16 18 19 20 19 18 18 18 17 18 19 19 19 19 20 20 21 22 22 22 23 23 23 24 25 26 26 27 27 27 28 28 28 29 30 31
13 13 13 13 13 13 13 14 13 13 15 15 14 16 19 24 27 29 29 29 28 27 27 26 25 26 27 27 26 26 26 26 26 25 21 18 18 19 18 18 18 19 18 17 18 18 18 18 19 20 20 22 22 20 18 19 19 19 20 20 20 21 21 21 22 23 25 26 26 26 26 26 26 27 27 28 29 29 28 28 28 27 28 29 30
14 14 15 15 15 15 16 16 16 15 16 16 16 16 17 21 25 27 29 29 28 27 28 28 26 25 26 27 27 27 26 26 26 26 23 21 19 18 16 16 17 19 20 19 18 19 18 18 19 20 21 22 22 21 20 21 21 21 22 22 23 24 24 25 25 27 28 29 30 30 30 30 30 30 30 29 29 30 29 29 29 28 28 28 29
15 15 15 16 17 17 17 17 17 17 17 17 18 18 18 19 22 25 27 29 29 28 28 28 27 26 26 28 29 28 26 25 26 27 25 23 21 18 17 17 19 20 20 21 20 20 19 19 19 19 19 20 21 21 22 22 23 24 24 25 26 26 27 28 28 29 30 31 33 33 33 33 33 33 32 31 30 31 31 31 31 31 30 30 30
16 16 16 16 17 18 18 18 18 19 18 18 19 20 20 21 22 24 25 27 27 27 25 25 26 25 26 27 27 27 26 23 22 22 22 21 20 19 18 19 19 20 20 21 21 19 18 18 19 19 18 19 20 21 22 23 25 26 26 27 27 29 30 30 30 31 32 32 34 35 35 34 35 36 35 33 31 31 32 33 33 33 33 33 33
16 17 17 17 17 18 18 19 20 20 20 20 21 22 22 23 22 22 23 23 24 24 23 23 24 24 24 25 25 24 22 19 16 16 17 19 19 19 18 18 18 18 19 19 19 18 18 18 19 19 19 20 21 22 24 25 26 27 28 29 30 31 32 32 32 33 32 32 33 35 36 36 38 39 37 34 32 32 33 34 35 35 35 35 35
17 17 18 18 19 19 19 20 20 20 21 21 23 24 24 24 22 21 21 21 22 22 23 23 23 22 23 24 23 21 18 16 15 16 17 18 18 18 18 18 19 19 19 18 19 19 19 19 20 21 22 23 24 25 26 27 28 29 30 31 31 32 32 32 33 33 32 33 34 36 37 37 39 40 38 35 34 34 33 33 34 34 35 35 35
17 18 19 19 21 21 21 21 21 21 21 22 23 24 23 23 22 21 21 22 23 24 24 24 23 23 23 22 21 19 18 17 17 17 18 18 19 20 20 21 21 20 20 20 21 21 22 22 23 23 25 26 26 27 27 28 29 30 31 31 31 31 32 32 33 33 34 33 34 36 37 38 40 40 38 36 36 35 34 34 34 35 35 36 36
18 19 20 21 21 21 21 21 21 22 22 23 23 22 21 22 23 23 23 23 24 24 23 23 22 22 22 21 20 19 19 19 19 19 19 20 20 21 22 22 22 22 22 23 23 24 25 25 26 27 28 28 29 29 28 28 29 30 30 31 32 32 32 33 34 35 35 35 35 36 37 39 41 39 37 37 37 37 37 37 38 38 39 38 38
20 20 20 19 20 20 20 22 23 23 23 23 22 20 20 20 22 23 23 23 23 22 21 21 21 21 21 21 20 20 20 20 20 19 20 20 21 21 22 23 24 24 25 26 27 27 28 29 29 30 30 30 30 30 30 30 30 30 30 31 32 32 33 34 35 35 36 36 37 38 38 40 41 40 39 39 39 39 40 40 41 42 42 42 42
20 21 20 19 20 20 21 23 24 23 22 21 20 19 19 20 21 22 23 22 22 21 21 21 22 22 22 21 21 21 21 20 19 19 19 20 21 22 23 24 25 26 27 28 29 30 30 31 31 32 32 32 32 32 32 31 31 32 32 32 33 34 34 35 36 36 37 38 39 41 41 42 42 42 42 42 42 43 43 43 43 44 45 45 45
20 21 20 19 19 19 21 23 24 24 24 23 23 23 24 24 24 24 24 24 23 23 23 23 23 23 23 23 23 22 21 20 19 19 20 21 21 23 24 25 26 27 28 29 30 31 31 31 32 32 32 33 33 33 33 33 33 34 34 35 35 36 37 38 38 39 40 41 42 43 43 44 44 44 45 45 46 46 46 46 46 47 47 48 48
21 20 19 18 17 18 21 22 24 26 27 28 28 28 28 28 27 27 26 26 26 26 26 26 25 25 25 24 24 22 21 20 20 20 21 21 22 24 25 27 28 29 30 30 31 32 32 32 32 32 32 32 33 33 33 33 34 35 36 36 37 38 39 40 41 41 42 43 43 44 45 45 45 46 47 47 48 48 48 48 48 49 49 49 49
24 22 20 19 19 19 20 20 21 23 26 30 31 31 29 28 28 27 26 26 27 27 27 27 26 26 26 25 24 23 22 21 21 21 22 23 25 26 27 28 30 31 32 33 33 33 33 33 32 32 31 32 32 32 33 33 34 35 36 38 39 39 40 41 42 43 43 44 44 45 45 46 46 47 48 49 49 49 49 49 49 49 49 49 49
25 25 23 22 21 21 20 19 19 20 23 27 29 31 31 31 31 31 31 31 30 28 28 28 28 28 28 27 26 25 24 24 23 23 25 26 27 28 29 31 32 34 34 35 35 35 34 33 32 32 32 32 33 33 34 34 35 36 37 39 40 41 42 43 43 44 45 45 45 46 46 47 48 48 49 49 49 49 49 49 49 49 49 49 49
27 27 27 26 25 24 23 21 21 22 23 25 26 27 29 30 33 35 37 37 35 34 33 33 31 30 30 30 30 30 29 29 28 28 27 28 30 31 33 34 35 35 35 35 35 35 34 33 33 33 33 34 35 35 36 36 37 38 39 40 41 42 43 44 44 45 46 46 46 46 47 47 48 48 48 48 48 47 47 47 47 47 47 47 47
30 30 30 29 28 27 26 25 25 25 26 26 26 27 27 28 30 32 35 37 38 38 38 36 34 32 32 32 33 34 34 34 33 32 30 31 33 34 35 35 36 36 35 35 34 34 34 35 35 35 36 37 37 38 38 39 40 41 41 42 43 44 44 44 44 45 45 45 45 45 45 46 46 46 45 45 44 44 44 44 45 45 45 45 45
34 34 34 33 32 31 30 30 29 29 29 29 29 29 29 29 31 32 33 33 34 36 38 39 37 36 36 35 36 36 36 36 35 34 33 33 34 35 35 35 35 35 34 34 34 35 36 36 37 38 38 39 38 38 38 39 40 41 42 42 42 42 43 43 43 43 44 44 44 43 43 43 42 42 42 42 42 42 42 43 43 44 44 45 45
38 38 37 37 37 37 36 35 34 34 33 33 33 33 32 32 33 34 34 33 31 31 33 34 34 33 33 33 34 34 35 34 34 34 34 34 33 33 33 34 34 35 35 35 35 36 36 37 38 38 37 35 34 34 35 37 38 39 39 39 39 40 40 41 41 41 41 41 41 40 40 40 40 40 41 41 41 41 42 42 43 44 44 45 46
43 43 43 43 42 42 41 40 39 38 38 37 37 36 36 35 36 37 37 36 34 30 28 28 29 29 28 29 30 30 31 31 32 32 32 32 32 32 32 33 34 35 35 35 35 35 36 35 35 33 31 30 31 33 35 36 38 38 39 39 39 39 39 38 38 38 38 37 37 37 37 38 38 39 39 40 41 41 42 43 44 44 45 45 46
47 47 47 47 47 46 45 44 43 42 42 41 40 40 39 39 39 39 39 38 35 32 31 30 30 30 30 30 31 31 31 30 30 29 30 30 31 32 32 33 34 35 35 35 35 35 34 33 31 30 31 32 33 34 35 36 37 38 38 38 37 36 35 34 34 33 34 34 34 35 35 36 37 38 39 40 41 41 42 43 44 45 45 45 46
47 47 47 47 47 47 47 46 46 45 45 45 44 43 42 42 41 41 41 39 36 35 34 34 33 33 32 32 32 32 32 32 31 31 31 31 31 32 33 34 35 35 35 35 35 34 33 33 33 33 34 34 34 33 34 34 35 35 35 34 32 31 30 29 30 30 31 31 32 33 34 36 37 38 39 40 40 41 42 43 44 45 45 45 44
46 46 46 45 45 45 45 45 45 46 46 47 47 46 45 44 44 43 43 42 41 40 38 38 37 36 35 34 34 34 33 33 34 34 34 34 33 34 34 35 35 34 34 34 33 33 32 33 33 33 33 32 31 31 31 32 31 31 29 28 27 27 27 27 27 29 30 31 32 33 34 36 37 38 39 40 40 40 41 42 42 42 42 40 39
43 43 43 43 42 42 43 43 43 43 44 45 47 48 47 47 46 45 45 45 45 43 42 41 40 39 38 38 36 36 36 36 36 35 36 37 36 35 34 34 33 32 31 30 30 29 30 30 30 30 29 29 29 29 29 28 27 26 25 24 24 24 25 26 27 28 29 31 32 33 34 35 37 38 38 39 39 39 38 38 37 36 34 31 28
41 41 41 41 41 41 41 42 42 42 42 43 44 46 48 48 47 47 46 46 45 45 44 42 42 42 42 41 39 39 39 39 37 36 36 37 36 35 34 33 31 29 27 26 26 26 27 27 27 26 26 27 27 26 25 24 23 22 22 22 23 24 25 26 27 28 29 30 31 33 34 35 36 36 37 37 36 34 32 31 30 28 25 22 20
40 40 39 39 39 41 42 42 43 43 44 43 43 43 45 47 48 48 47 46 46 45 45 44 44 44 43 42 41 40 37 34 34 34 33 33 34 35 34 32 29 27 25 24 24 24 25 25 24 25 25 25 24 23 21 20 20 20 21 22 23 24 25 25 26 27 28 30 31 32 33 33 34 34 33 32 29 27 25 24 23 21 19 18 17
38 37 36 36 37 38 40 42 43 43 43 44 44 44 44 45 46 47 47 47 46 46 46 45 44 43 41 40 40 39 35 31 30 29 29 32 34 35 32 29 26 25 24 23 23 23 23 23 24 24 24 23 21 19 18 19 20 20 21 22 23 23 24 24 25 27 29 30 30 30 30 31 31 30 28 26 24 22 21 20 18 17 17 17 17
34 33 33 34 35 36 37 39 40 41 42 42 43 44 44 44 45 45 46 47 47 47 47 46 44 42 40 39 37 35 34 32 30 30 33 35 35 32 28 25 24 25 24 23 23 23 23 24 23 23 21 19 18 18 18 19 20 20 21 21 21 22 23 24 26 27 28 28 28 28 29 29 29 27 24 22 21 20 19 17 16 17 18 19 20
30 31 31 32 33 34 35 36 37 38 39 39 40 41 42 43 44 44 45 46 46 46 45 45 43 42 40 39 35 32 31 31 32 34 36 35 32 28 25 24 24 24 24 23 23 23 23 23 22 20 18 17 17 18 19 19 19 19 20 20 20 21 23 24 25 26 26 25 26 27 28 28 27 25 22 21 20 19 17 17 17 19 20 21 23
27 29 30 31 32 34 35 36 36 37 37 37 37 38 39 40 41 42 43 44 44 45 44 43 42 40 39 37 35 33 34 35 35 34 33 30 26 25 24 23 23 24 24 23 23 22 22 21 19 17 16 17 18 18 18 18 18 18 18 18 19 21 22 23 24 23 23 23 24 26 27 26 25 24 22 20 20 19 19 19 20 20 21 22 23
22 24 26 28 30 31 32 33 34 35 36 37 37 38 38 37 37 38 39 40 41 42 43 43 42 41 40 38 38 37 37 36 33 32 30 26 24 23 23 22 22 23 23 22 21 20 19 17 16 15 16 17 17 17 17 17 17 17 17 18 19 20 21 22 21 21 21 22 24 25 26 25 24 23 22 21 21 21 21 22 22 21 21 22 22
19 22 25 27 28 29 30 30 30 30 31 32 34 36 37 37 36 36 36 36 36 37 39 41 42 42 42 42 40 38 35 31 29 27 26 24 24 24 24 23 23 23 22 21 20 18 16 15 14 14 15 15 15 15 15 15 15 16 16 17 18 19 20 19 19 19 20 22 24 25 25 25 24 23 22 22 21 21 21 21 21 20 19 18 17
16 17 19 20 20 20 21 22 24 25 27 28 29 31 33 34 34 34 33 32 32 32 33 34 35 37 38 37 35 31 28 27 25 25 24 24 24 25 24 23 22 22 21 20 18 15 14 13 13 14 14 14 14 13 13 14 15 15 15 16 17 18 17 17 17 18 20 22 24 25 25 24 24 23 23 22 22 21 20 19 19 19 17 14 12
16 14 14 13 12 11 10 11 12 15 18 21 24 26 27 29 30 30 29 28 28 28 27 27 28 29 29 27 25 24 24 24 24 24 25 25 23 22 21 21 21 21 19 17 14 13 12 13 13 13 13 12 11 12 13 14 14 13 14 15 15 16 16 16 17 18 19 21 23 24 24 24 23 23 23 23 22 21 19 18 18 18 15 12 11
19 17 16 14 12 10 7 6 8 9 10 12 15 17 19 22 25 26 26 26 25 24 24 24 24 23 22 20 20 20 21 22 24 25 25 23 20 19 20 20 19 18 15 14 13 13 13 13 13 12 11 10 10 12 13 13 12 12 13 13 14 14 15 16 17 18 20 21 22 23 24 24 23 23 22 22 21 20 19 18 18 17 15 13 12
19 18 16 15 14 13 10 7 3 1 2 4 6 9 13 17 20 22 22 22 21 20 20 20 19 18 17 16 17 19 20 20 21 23 23 20 19 19 18 17 16 14 13 12 12 12 12 12 12 10 9 9 10 11 12 11 10 10 11 12 12 13 14 15 17 18 19 20 21 23 24 23 22 22 22 21 21 20 19 18 17 17 15 14 14
20 19 19 18 17 15 14 13 12 10 9 8 9 11 13 15 16 17 17 18 18 18 18 17 17 16 15 14 15 17 18 18 19 20 20 18 17 17 15 14 14 12 11 11 12 12 12 11 10 8 8 9 10 11 11 9 9 9 10 11 11 12 13 15 16 18 19 19 20 21 23 23 22 21 21 21 21 20 19 18 17 16 16 15 15
20 19 19 19 19 19 18 16 16 15 15 15 14 15 15 15 15 16 16 17 17 17 17 16 16 15 15 15 15 17 18 18 17 17 16 16 15 15 15 14 13 11 11 11 12 12 11 9 8 8 8 9 10 10 8 8 8 9 9 9 10 11 13 14 16 17 18 18 19 20 22 22 22 21 21 21 20 20 19 19 17 16 16 14 13
22 21 20 19 19 19 19 19 18 16 16 15 15 15 15 14 14 14 14 14 14 14 15 15 15 14 13 14 15 16 17 18 18 17 17 17 17 17 16 14 11 10 11 12 12 11 10 8 8 8 9 10 9 8 7 7 7 8 8 8 9 11 13 15 16 17 18 18 19 20 21 22 22 21 21 21 20 19 19 19 18 17 15 13 12
23 23 23 22 22 21 20 19 18 16 15 14 13 13 13 12 12 12 12 11 11 11 12 13 14 15 15 16 16 17 19 20 21 20 20 19 18 17 15 13 11 11 12 12 11 10 9 8 8 9 9 9 8 7 6 7 7 7 8 8 10 11 13 15 16 17 18 18 19 19 20 22 22 21 20 20 20 19 19 20 19 18 16 13 11
22 22 22 23 23 24 23 21 19 17 16 15 13 12 12 11 10 10 10 10 10 12 13 14 15 17 18 17 17 17 18 20 20 19 18 16 15 15 15 13 12 12 12 11 10 9 8 8 8 8 8 7 6 6 6 7 7 8 9 9 10 12 14 15 16 17 18 19 19 20 20 21 22 22 20 20 19 19 19 19 19 18 17 14 11
21 21 21 21 21 21 22 22 21 20 20 19 18 18 17 17 16 16 16 16 17 17 18 18 19 19 18 17 16 15 16 16 16 14 13 12 12 12 12 12 12 12 11 10 8 8 7 7 7 6 5 5 5 6 6 6 7 8 9 10 11 13 14 14 16 17 18 19 20 20 20 21 22 22 21 20 19 19 18 18 18 18 17 15 12
20 20 20 19 18 18 18 18 18 19 19 19 19 19 20 19 18 18 17 17 16 16 16 16 16 16 15 14 14 13 13 12 11 10 9 9 9 9 10 11 12 11 9 7 7 7 6 5 4 3 3 4 5 5 6 6 7 8 9 10 12 13 14 15 15 17 18 19 20 21 21 21 21 22 23 22 20 18 17 17 17 18 18 15 12
16 17 17 17 17 17 17 17 16 15 15 15 15 15 15 14 13 12 11 11 10 9 9 9 9 9 9 9 9 9 9 8 8 7 7 7 7 8 10 11 10 9 7 6 6 6 5 4 3 2 2 3 4 4 5 6 8 9 10 11 11 13 14 15 16 17 18 19 20 21 21 21 22 22 23 23 21 19 17 17 16 17 17 16 13
13 13 13 14 15 15 15 15 15 15 14 14 13 12 12 11 10 10 10 9 9 8 7 6 6 6 6 6 6 7 7 6 6 6 6 6 7 9 10 9 8 7 7 6 6 5 4 4 3 2 2 3 4 4 5 6 7 9 10 11 12 13 14 15 16 17 18 19 19 20 21 22 22 22 22 23 23 21 19 17 16 16 16 16 15
Wind_Direction
207 219 224 229 233 234 234 232 233 238 243 246 247 246 249 254 256 246 229 226 228 225 225 226 223 218 211 205 203 203 202 199 196 194 191 187 179 175 179 187 221 279 308 314 318 319 321 325 328 332 336 341 346 346 348 345 343 339 334 334 335 334 335 334 335 336 333 332 331 328 325 322 320 317 315 314 312 311 309 308 306 303 299 296 293
202 213 221 229 231 231 231 228 228 233 239 244 244 244 246 246 249 250 245 238 235 230 227 229 231 229 226 224 222 222 224 229 236 239 240 239 236 234 232 230 233 242 253 262 268 271 275 279 282 284 287 290 294 299 306 310 309 312 314 315 315 314 315 317 318 320 320 319 318 316 315 314 313 312 311 311 310 310 310 309 308 307 305 303 301
199 211 223 232 234 235 234 230 228 230 237 243 246 246 246 244 243 247 250 248 242 236 231 230 231 231 230 231 233 233 233 238 245 248 250 252 255 260 263 262 258 256 256 256 259 261 261 264 265 265 269 273 275 276 276 278 280 284 288 290 294 296 299 303 305 306 307 307 306 305 305 306 305 305 305 305 304 305 305 305 305 305 304 304 302
204 212 228 246 254 253 247 240 235 233 236 241 246 248 248 246 243 243 248 251 246 241 237 233 232 232 231 234 240 244 246 252 256 257 259 259 260 264 269 272 272 270 268 266 265 263 262 262 263 262 263 267 270 271 271 272 271 272 274 276 280 284 288 291 293 296 297 298 299 299 300 300 301 301 300 299 298 298 297 298 298 299 299 300 299
213 216 230 250 263 265 260 248 239 237 240 242 244 247 248 248 246 242 245 249 249 245 241 237 235 234 234 236 242 246 249 254 260 262 263 264 264 265 266 269 271 274 277 279 275 271 267 264 263 264 266 267 268 269 270 271 272 273 275 277 278 281 283 285 288 292 294 294 294 294 296 297 298 298 297 296 296 295 294 294 293 293 293 294 295
219 224 232 241 251 260 261 251 238 235 239 242 242 243 245 247 245 244 245 248 251 249 244 239 237 236 236 237 240 245 248 252 259 263 265 268 269 267 266 267 269 271 275 278 278 276 274 269 265 264 267 270 269 269 271 273 275 277 278 278 279 279 281 283 286 288 290 290 290 291 293 295 295 295 294 294 294 294 294 293 292 291 290 290 291
228 232 236 238 240 245 247 247 245 241 241 244 241 237 240 242 242 243 246 250 253 255 252 248 245 242 242 243 246 249 251 254 257 258 262 269 268 263 261 261 265 268 271 274 276 277 277 276 272 268 269 274 272 270 272 274 274 277 280 281 283 284 285 285 285 285 286 287 289 290 292 293 293 294 294 294 295 295 295 293 291 290 288 288 288
240 241 242 241 240 241 240 242 247 250 252 256 255 243 239 241 241 241 245 248 252 256 259 260 258 252 249 251 256 257 258 259 257 255 259 266 263 256 254 258 264 269 272 273 276 278 278 278 278 277 278 280 277 274 275 275 275 278 281 282 285 289 291 291 290 289 289 290 291 293 293 294 294 295 296 297 297 297 297 297 295 293 290 288 287
251 250 249 248 247 246 245 244 247 251 255 262 264 256 245 242 242 242 243 245 249 255 259 261 261 255 252 255 260 262 264 264 260 258 260 262 257 251 252 258 264 268 270 272 276 279 280 281 281 281 283 284 284 284 285 282 281 282 281 282 286 288 289 290 290 290 291 293 294 295 296 296 297 298 298 298 298 298 298 298 298 297 295 292 290
256 252 251 252 253 253 252 250 249 249 253 260 264 260 252 245 242 241 242 244 247 252 254 254 255 254 254 257 260 262 266 268 264 259 255 253 253 252 254 258 260 261 265 270 273 275 278 280 280 279 281 283 284 287 288 285 283 282 281 284 287 287 288 290 290 291 293 294 295 296 297 297 298 297 297 298 299 298 298 298 297 297 296 295 294
257 251 249 250 252 254 255 255 253 251 252 259 262 261 258 253 244 239 238 240 243 246 246 247 251 254 256 258 260 262 263 265 265 257 247 245 251 254 257 260 260 260 262 264 267 269 272 275 276 276 278 279 280 282 284 283 283 282 282 284 285 286 290 291 291 293 295 295 296 297 297 297 296 295 297 300 301 299 297 297 296 296 295 295 295
260 255 250 247 248 250 252 253 254 252 252 257 260 261 261 259 250 241 237 237 240 242 243 245 250 255 256 256 257 258 256 254 255 251 243 244 250 253 257 260 260 260 261 262 265 269 270 272 274 277 280 280 280 282 283 284 284 283 283 284 286 287 289 290 290 292 294 294 294 295 297 299 298 298 302 305 303 299 297 297 296 295 295 295 295
262 258 253 251 250 249 248 249 250 251 252 255 257 257 258 257 251 243 241 241 243 244 245 246 247 251 254 254 252 250 246 243 243 243 241 244 249 252 257 259 260 261 262 264 268 271 272 273 275 278 280 281 282 283 285 286 286 285 285 286 287 288 289 290 291 293 294 293 293 294 298 299 298 300 304 305 302 299 298 297 296 295 295 294 295
265 261 259 257 253 249 245 245 246 248 250 253 252 251 251 250 247 244 245 247 248 250 251 249 244 243 247 248 245 241 241 241 242 243 245 248 251 254 257 259 263 266 269 271 273 274 275 277 278 279 281 282 283 284 285 285 286 286 287 288 289 289 290 291 292 292 293 292 292 294 296 296 296 300 303 303 301 300 299 297 296 295 294 293 294
266 265 265 261 254 248 246 246 248 248 250 252 251 248 245 244 245 244 245 248 251 251 251 248 244 241 241 242 241 241 243 246 248 250 253 257 260 263 266 269 272 276 278 279 281 281 282 282 282 283 284 285 285 286 286 286 286 286 288 289 290 290 290 290 290 290 290 291 292 293 294 294 296 300 301 301 300 300 299 298 297 295 294 294 293
262 261 261 258 254 253 254 255 254 253 252 251 248 246 245 244 244 244 244 245 247 247 245 244 243 243 243 244 245 248 250 251 254 257 261 266 270 274 277 279 280 281 282 283 283 284 284 285 285 286 287 287 287 287 287 287 287 287 288 288 289 289 289 289 289 289 290 290 290 290 291 293 296 299 299 298 298 298 297 297 296 296 295 295 294
260 258 257 257 256 257 260 261 259 257 255 250 245 242 242 242 242 243 244 244 244 244 243 243 243 244 245 247 248 250 253 256 260 264 268 271 274 276 277 279 279 280 281 282 283 284 284 285 285 286 287 287 287 287 288 288 288 288 287 287 287 287 288 289 289 289 289 289 289 290 292 294 296 297 298 298 297 297 297 297 296 296 296 295 295
261 262 263 262 258 256 257 258 257 255 251 249 248 246 242 239 238 239 240 242 243 245 245 244 244 244 245 247 250 252 256 259 262 265 268 270 273 276 279 280 281 282 282 283 283 283 284 284 285 286 287 287 287 288 288 288 288 288 287 287 288 287 287 288 288 287 288 288 289 290 292 294 295 296 296 297 296 297 297 297 297 297 297 296 296
261 260 260 259 258 257 256 255 255 255 251 248 249 249 245 241 238 237 238 241 245 248 250 249 249 249 250 251 253 255 257 259 262 265 268 272 277 280 283 284 284 284 285 285 285 285 285 286 286 287 288 288 288 288 288 288 288 289 289 289 289 289 288 288 288 288 289 289 289 290 291 293 294 294 295 295 295 296 296 297 297 297 297 297 297
261 259 255 252 253 255 254 255 257 257 253 250 250 251 249 246 244 243 244 245 247 249 251 251 252 252 253 253 253 253 255 258 261 265 269 274 278 281 282 283 283 283 284 285 286 286 286 286 286 287 288 288 288 287 287 288 288 289 289 290 290 290 290 290 290 290 290 290 291 292 292 293 293 294 294 295 296 297 297 297 298 298 298 298 297
263 262 259 255 253 253 253 254 257 258 256 255 254 253 252 251 251 250 251 250 248 248 250 251 251 251 251 252 253 253 253 255 258 262 267 272 276 278 280 280 280 281 282 283 284 284 284 284 285 286 286 287 287 288 288 288 288 287 288 288 289 289 289 289 290 290 290 291 291 292 293 293 294 295 295 295 296 296 296 297 297 297 297 297 298
265 265 264 262 260 257 254 251 252 254 255 256 257 256 255 255 255 255 254 252 250 250 251 251 251 250 251 253 254 255 255 256 257 260 264 269 273 275 277 277 278 279 280 281 281 281 281 282 283 283 284 285 287 287 288 288 287 287 287 288 288 288 288 288 288 289 289 290 291 292 293 294 294 294 294 294 294 294 295 295 295 296 296 296 296
264 264 264 263 262 260 257 254 252 253 254 254 255 256 257 257 256 255 253 252 251 251 251 250 249 250 251 253 256 258 260 262 261 261 264 268 271 272 274 275 276 277 278 279 279 279 280 281 282 283 284 285 286 286 286 286 286 286 287 287 287 287 287 287 288 288 289 290 291 291 292 292 292 292 292 292 293 293 294 294 294 294 294 293 293
264 263 263 262 262 262 261 257 256 256 257 257 257 256 256 257 256 255 254 254 255 254 253 251 249 250 252 255 257 261 264 265 264 263 265 268 270 272 273 275 276 277 278 278 279 279 280 281 282 282 283 284 285 285 285 285 285 285 286 286 286 287 287 288 288 289 289 290 290 291 291 291 291 291 292 292 292 292 292 292 292 291 291 291 291
263 263 262 262 263 263 262 260 258 257 256 255 256 257 256 256 256 254 253 254 256 254 252 251 252 253 255 259 262 264 265 265 264 265 267 270 274 276 276 277 278 278 278 278 278 279 280 281 282 283 283 284 285 286 287 288 288 287 287 287 287 287 287 287 288 288 288 288 288 289 289 290 291 291 291 291 291 291 291 291 291 290 290 290 289
262 262 262 261 262 262 261 260 260 258 256 254 253 254 254 253 253 251 250 252 253 251 249 251 254 257 260 263 266 268 268 268 268 269 270 274 277 279 279 278 277 277 276 277 277 278 280 282 282 282 283 285 288 291 292 291 290 289 289 288 288 288 287 287 286 286 285 286 287 288 289 289 290 290 291 291 291 292 291 291 290 290 289 289 288
261 261 261 261 260 260 258 257 257 257 256 255 253 252 251 251 252 251 252 254 253 252 251 252 254 256 258 261 264 267 269 270 270 271 273 275 277 278 278 277 277 276 276 276 277 279 281 280 279 281 285 289 291 292 292 291 290 289 289 289 289 288 287 286 286 286 286 287 288 288 289 290 291 291 292 292 292 292 292 292 291 291 291 290 290
263 262 262 261 261 260 258 257 255 252 252 252 253 251 250 250 251 251 252 252 252 252 252 252 252 253 255 257 260 264 268 270 271 271 272 275 278 281 280 278 277 277 277 277 278 279 279 278 278 282 286 288 289 290 291 291 290 290 289 289 288 287 286 287 287 288 289 289 290 291 292 293 293 293 293 293 294 294 295 295 294 294 294 293 294
266 264 263 262 261 261 260 258 256 253 250 248 249 249 249 248 248 249 250 251 251 251 252 253 253 253 253 255 257 261 266 270 271 271 272 275 281 285 283 280 278 278 278 278 278 278 278 279 280 281 283 285 287 290 291 291 290 290 288 286 285 286 287 289 290 291 292 293 294 295 295 295 295 296 296 297 297 298 297 296 295 295 295 296 297
266 265 264 263 263 262 260 259 258 256 252 248 246 246 246 245 245 245 245 247 248 248 249 252 254 254 254 254 255 260 265 268 269 271 274 276 281 285 286 284 282 279 277 276 277 277 277 278 278 279 281 284 289 292 291 289 288 287 286 285 286 288 291 292 294 295 296 296 296 297 298 298 299 300 300 300 300 299 298 297 297 297 298 299 300
269 267 266 265 264 263 261 259 257 256 253 250 247 245 244 245 245 245 244 244 245 245 245 246 249 251 252 252 254 259 263 263 263 268 272 275 279 286 288 287 284 280 277 275 275 275 274 275 277 279 283 288 291 290 287 284 283 285 287 289 291 293 294 296 297 297 298 299 300 301 302 303 303 303 303 302 301 301 300 300 300 300 301 302 303
272 270 268 267 264 262 260 258 256 255 253 251 249 246 244 244 244 245 245 245 245 245 244 243 243 244 245 245 247 252 256 256 257 262 268 273 281 287 287 284 281 279 277 274 272 272 273 276 279 282 286 288 288 284 281 281 284 287 290 292 294 295 297 298 299 300 301 303 304 305 305 305 305 306 306 305 305 304 304 302 301 302 303 304 306
274 272 269 267 265 262 260 259 257 255 253 252 250 248 246 244 243 243 244 245 245 245 246 246 245 244 243 243 245 249 254 258 262 267 272 278 283 285 283 279 277 276 274 271 269 271 275 279 282 284 285 284 280 278 280 285 289 290 292 293 294 296 298 300 302 304 305 306 306 307 308 309 310 312 312 310 309 309 306 302 300 300 300 301 305
273 272 270 268 267 265 263 260 259 257 254 252 250 248 247 246 244 242 242 243 244 244 245 247 249 250 251 252 255 258 261 265 270 274 278 279 280 279 275 272 270 270 270 269 270 273 277 280 282 281 279 276 276 280 285 289 290 291 292 294 297 299 301 303 305 307 307 307 308 311 314 315 316 317 317 315 313 311 306 302 299 298 298 301 307
278 276 275 272 269 267 265 262 260 258 255 252 250 248 246 245 244 243 242 242 242 244 245 246 248 251 253 256 259 261 263 266 270 273 275 274 271 268 266 264 264 265 267 270 272 276 279 281 279 274 270 272 278 284 288 289 289 291 293 296 299 302 303 305 306 307 308 311 315 318 320 321 321 322 321 319 317 314 310 306 303 301 301 303 306
283 281 278 274 270 267 263 260 258 256 255 252 250 247 245 242 241 241 240 240 240 241 243 244 245 247 249 251 253 256 260 263 266 268 267 265 262 260 258 256 255 260 266 270 274 277 279 276 270 264 266 274 282 285 287 286 287 291 295 298 300 302 304 305 307 309 312 317 321 323 324 325 326 325 324 322 320 318 315 310 306 304 303 303 304
289 285 281 277 273 268 264 261 257 255 253 252 250 248 246 242 239 238 238 238 238 238 239 242 243 245 247 249 251 255 258 260 261 260 257 254 253 252 250 247 251 260 267 271 273 275 274 268 262 263 271 279 282 282 282 284 288 294 297 298 301 303 306 308 311 314 319 324 327 328 329 329 329 327 325 321 318 316 313 310 307 306 305 305 306
301 294 288 282 278 274 269 264 259 255 253 252 250 248 246 243 240 237 236 235 235 235 236 238 241 243 246 248 250 252 254 254 253 251 249 247 247 245 242 244 253 261 266 269 271 269 264 260 262 270 277 278 277 277 280 285 291 293 295 299 302 305 308 313 317 321 326 330 332 334 334 333 332 330 326 322 319 316 314 312 311 311 311 311 312
323 313 305 296 290 286 279 269 258 251 250 251 249 246 243 241 238 236 233 232 231 231 232 234 237 239 241 243 244 246 246 245 244 245 246 244 241 237 235 241 252 259 263 267 268 262 258 260 267 272 272 270 270 276 283 287 289 292 296 300 303 306 312 320 325 328 331 334 335 337 337 336 335 332 330 328 326 323 322 321 321 321 323 323 321
4 360 351 336 321 313 301 281 263 252 247 247 245 241 237 234 231 228 227 225 224 225 226 227 229 230 231 234 237 239 240 242 244 244 239 232 229 229 233 241 249 255 258 261 262 259 258 261 262 262 262 264 271 280 284 284 287 292 297 301 305 311 320 329 334 337 337 337 338 339 340 339 337 335 334 332 330 327 326 327 328 329 329 329 327
21 23 21 14 5 356 339 301 278 266 255 246 241 236 230 223 217 214 213 213 212 214 216 218 220 221 222 225 230 234 240 245 243 234 222 213 214 224 233 239 245 249 251 254 257 256 254 253 252 253 258 266 275 280 280 280 285 292 298 303 310 318 328 338 343 343 341 340 340 342 343 342 340 338 336 334 332 329 329 331 332 330 327 322 320
31 35 36 36 35 34 35 36 24 304 234 217 207 201 198 196 194 195 197 198 198 201 205 209 212 213 212 217 228 234 236 233 221 207 200 202 212 222 230 236 243 246 247 246 247 246 243 243 245 250 259 268 273 274 274 277 285 294 301 308 316 324 335 345 348 347 345 342 342 344 346 346 343 340 337 335 334 333 333 333 332 329 324 315 309
35 40 44 48 51 52 54 59 67 79 92 107 125 141 152 159 165 171 177 181 185 190 196 201 205 204 204 214 224 220 210 200 193 190 193 204 215 222 229 236 239 239 237 236 236 236 238 241 246 252 261 265 266 267 270 278 290 299 306 313 321 331 343 350 352 351 348 345 345 347 349 349 347 343 340 338 337 336 336 335 333 330 325 318 311
35 41 48 52 55 59 63 67 73 79 86 94 106 117 126 134 143 154 164 173 179 184 190 195 198 198 202 209 211 204 198 197 198 199 202 210 218 225 228 229 228 226 226 228 232 236 240 244 247 252 255 257 259 264 272 285 295 301 308 318 328 340 350 354 355 354 352 349 349 351 352 352 351 348 344 342 340 338 339 340 338 334 329 324 319
39 43 49 56 60 63 66 71 76 81 86 93 102 111 121 131 143 154 163 171 177 181 187 191 191 189 192 200 204 206 208 207 204 202 206 213 220 224 226 225 221 218 222 227 233 238 240 242 242 245 248 252 257 265 277 288 296 304 314 327 340 351 357 357 356 356 356 355 355 356 356 356 355 352 349 346 343 341 343 345 345 343 340 336 330
46 47 51 56 61 65 68 72 77 82 88 93 100 111 122 132 141 149 154 159 167 174 179 180 178 178 182 190 197 202 201 197 195 199 206 212 218 225 229 225 217 215 221 228 234 236 236 237 237 239 244 251 258 270 282 290 300 313 323 336 352 1 1 359 357 358 358 359 0 1 1 0 359 357 354 350 347 346 347 350 352 353 353 349 342
48 51 53 56 59 63 67 71 75 81 87 93 97 105 113 121 130 140 144 147 155 163 166 164 164 167 173 178 182 186 189 192 197 204 211 216 223 228 225 216 209 214 222 228 231 232 233 234 234 238 244 252 266 280 287 295 309 321 328 341 357 3 3 0 359 358 359 1 3 4 5 4 2 1 359 357 353 351 353 355 358 360 359 357 353
46 51 54 56 59 61 65 69 74 80 87 92 97 102 106 111 117 122 125 127 133 141 145 147 150 154 158 162 168 178 190 201 208 213 216 219 219 213 204 201 207 216 221 224 228 229 228 228 231 237 248 263 277 286 293 305 318 325 331 343 355 360 1 1 360 359 0 2 4 5 7 7 5 5 5 4 0 357 358 2 4 4 3 3 2
42 46 49 52 56 59 61 64 69 76 82 86 89 93 98 102 108 113 117 121 128 136 142 149 154 160 166 174 182 191 200 206 207 204 202 204 202 195 194 201 209 212 213 216 221 220 217 216 221 233 255 274 283 292 302 315 325 329 335 344 350 354 356 360 1 1 2 2 3 5 7 8 8 8 9 10 8 4 3 6 8 8 8 8 8
40 44 45 48 52 57 61 64 67 73 79 82 83 84 86 89 92 97 102 108 117 127 137 148 156 164 172 179 185 187 187 187 185 184 188 194 194 192 194 200 204 203 202 209 214 210 205 204 209 224 260 283 295 306 316 325 330 332 336 342 346 349 351 355 359 1 1 1 2 4 5 7 10 11 11 12 12 10 8 8 11 13 14 13 14
42 45 45 47 50 55 59 62 65 70 75 79 81 81 81 79 79 81 87 93 99 105 113 121 131 140 149 156 160 164 168 173 179 184 191 194 191 189 192 197 199 198 200 207 210 206 201 200 208 228 265 291 304 315 324 331 335 335 337 340 343 345 347 350 355 359 359 359 1 3 3 4 8 11 12 13 15 15 13 11 13 16 19 20 21
Height
3124 3125 3126 3127 3128 3128 3129 3129 3130 3131 3132 3133 3135 3136 3137 3138 3140 3141 3141 3141 3141 3142 3142 3143 3143 3143 3143 3143 3143 3143 3143 3143 3143 3144 3144 3144 3144 3145 3145 3145 3146 3146 3146 3147 3147 3147 3147 3147 3147 3147 3147 3147 3147 3147 3147 3147 3147 3147 3147 3146 3146 3146 3146 3146 3146 3146 3146 3146 3146 3146 3145 3145 3145 3144 3144 3144 3143 3143 3143 3143 3142 3142 3142 3142 3141
3123 3123 3124 3125 3125 3125 3126 3127 3128 3129 3129 3131 3133 3134 3135 3136 3137 3139 3140 3140 3141 3141 3141 3141 3142 3142 3142 3142 3142 3142 3142 3142 3143 3143 3143 3144 3144 3144 3144 3145 3145 3145 3146 3146 3146 3147 3147 3147 3147 3147 3147 3147 3147 3147 3147 3147 3147 3147 3146 3146 3146 3146 3145 3145 3145 3145 3145 3145 3145 3145 3144 3144 3144 3143 3143 3142 3142 3142 3141 3141 3140 3140 3139 3139 3139
3121 3122 3122 3123 3123 3123 3124 3124 3125 3126 3128 3129 3130 3132 3133 3134 3135 3137 3138 3139 3139 3140 3140 3140 3140 3140 3141 3141 3141 3141 3141 3141 3141 3142 3142 3143 3143 3144 3144 3145 3145 3145 3145 3145 3145 3146 3146 3146 3146 3146 3146 3146 3146 3146 3146 3146 3146 3146 3146 3146 3145 3145 3145 3145 3144 3144 3144 3144 3143 3143 3143 3143 3142 3142 3142 3141 3141 3140 3139 3139 3138 3138 3137 3137 3136
3121 3121 3121 3121 3121 3122 3122 3123 3124 3125 3126 3127 3127 3129 3130 3131 3133 3134 3135 3136 3137 3138 3139 3139 3139 3139 3139 3139 3140 3140 3141 3141 3141 3141 3141 3142 3142 3143 3143 3144 3144 3144 3144 3144 3144 3144 3144 3145 3144 3144 3144 3144 3144 3144 3144 3145 3145 3145 3145 3145 3145 3144 3144 3144 3144 3143 3143 3142 3142 3142 3141 3141 3141 3140 3140 3140 3139 3138 3138 3137 3136 3136 3135 3134 3134
3119 3120 3120 3120 3120 3121 3121 3122 3122 3123 3124 3124 3125 3126 3127 3128 3130 3132 3133 3134 3135 3136 3137 3137 3137 3137 3138 3138 3139 3139 3139 3139 3140 3140 3141 3141 3141 3141 3141 3141 3141 3142 3142 3143 3143 3143 3143 3143 3143 3143 3143 3143 3142 3143 3143 3143 3143 3143 3143 3143 3143 3143 3143 3143 3143 3142 3142 3141 3141 3140 3140 3139 3139 3138 3138 3137 3137 3136 3135 3135 3134 3133 3132 3131 3131
3118 3118 3119 3119 3119 3120 3120 3120 3121 3121 3122 3123 3124 3124 3124 3126 3128 3129 3130 3131 3132 3133 3134 3135 3135 3136 3137 3137 3137 3137 3138 3138 3139 3139 3139 3139 3140 3140 3139 3139 3139 3139 3140 3141 3141 3141 3141 3141 3141 3141 3141 3141 3140 3140 3141 3141 3141 3141 3141 3141 3141 3141 3141 3141 3141 3140 3140 3139 3139 3138 3138 3137 3137 3136 3135 3135 3134 3134 3133 3132 3131 3130 3129 3128 3127
3116 3117 3117 3117 3118 3118 3118 3119 3119 3119 3120 3120 3121 3121 3122 3123 3125 3127 3127 3128 3129 3129 3130 3132 3133 3134 3134 3135 3135 3135 3136 3137 3137 3137 3137 3137 3137 3137 3137 3137 3137 3137 3138 3139 3139 3139 3139 3139 3138 3138 3138 3138 3138 3138 3139 3139 3139 3139 3139 3139 3139 3139 3139 3139 3139 3138 3138 3137 3137 3136 3136 3135 3134 3133 3133 3132 3131 3130 3130 3129 3128 3127 3126 3125 3124
3114 3115 3115 3115 3116 3116 3117 3117 3117 3117 3117 3117 3118 3119 3120 3121 3123 3125 3125 3125 3126 3127 3128 3129 3130 3131 3132 3132 3133 3133 3134 3134 3134 3134 3134 3135 3135 3135 3135 3135 3135 3135 3136 3137 3137 3137 3136 3136 3136 3136 3136 3136 3136 3136 3136 3136 3136 3136 3136 3136 3136 3136 3136 3136 3136 3135 3135 3134 3134 3133 3133 3132 3132 3131 3130 3129 3128 3127 3126 3125 3124 3124 3123 3122 3121
3111 3112 3113 3113 3114 3114 3115 3115 3115 3115 3116 3116 3116 3116 3117 3119 3120 3122 3122 3123 3124 3124 3125 3125 3126 3127 3129 3129 3130 3130 3131 3132 3131 3131 3131 3132 3132 3133 3133 3133 3133 3133 3133 3134 3135 3135 3134 3134 3134 3134 3134 3134 3133 3134 3134 3133 3133 3133 3133 3133 3133 3133 3133 3133 3132 3132 3131 3130 3130 3130 3129 3129 3128 3127 3126 3125 3124 3123 3122 3121 3120 3120 3119 3118 3117
3109 3109 3110 3111 3111 3112 3112 3113 3113 3114 3114 3114 3114 3115 3115 3116 3117 3118 3119 3120 3121 3122 3122 3122 3122 3124 3126 3126 3127 3127 3128 3128 3128 3127 3128 3129 3130 3130 3130 3131 3131 3131 3131 3131 3132 3132 3132 3132 3132 3132 3132 3132 3131 3131 3131 3131 3131 3131 3130 3130 3130 3130 3130 3129 3128 3128 3127 3126 3125 3125 3125 3124 3124 3123 3123 3122 3120 3119 3118 3117 3116 3115 3115 3114 3113
3106 3107 3108 3108 3109 3109 3110 3110 3111 3112 3112 3112 3113 3113 3113 3113 3114 3114 3115 3116 3118 3118 3119 3119 3120 3121 3122 3123 3124 3124 3125 3125 3124 3124 3125 3126 3127 3128 3128 3128 3129 3129 3129 3129 3130 3130 3130 3130 3130 3129 3129 3129 3129 3129 3128 3128 3128 3128 3128 3127 3127 3127 3126 3125 3124 3123 3123 3121 3120 3120 3120 3120 3119 3119 3118 3118 3117 3115 3114 3112 3111 3110 3109 3109 3108
3104 3105 3105 3106 3106 3107 3107 3108 3108 3109 3110 3110 3110 3111 3111 3110 3111 3111 3112 3113 3114 3115 3116 3117 3117 3118 3119 3120 3121 3121 3122 3122 3121 3121 3122 3124 3125 3125 3126 3126 3127 3127 3127 3127 3127 3127 3128 3128 3127 3127 3126 3126 3126 3126 3126 3125 3125 3124 3124 3124 3124 3123 3123 3121 3120 3119 3119 3117 3116 3115 3115 3114 3114 3114 3114 3113 3112 3111 3110 3108 3107 3106 3105 3104 3103
3102 3102 3103 3104 3104 3105 3105 3105 3106 3106 3107 3107 3108 3108 3108 3108 3108 3109 3110 3111 3111 3112 3113 3114 3115 3116 3116 3117 3118 3118 3119 3119 3119 3120 3121 3122 3122 3123 3124 3124 3124 3125 3125 3125 3125 3125 3125 3125 3125 3124 3124 3124 3124 3123 3123 3122 3121 3121 3120 3120 3120 3119 3118 3117 3116 3115 3115 3113 3112 3111 3110 3109 3108 3108 3109 3108 3107 3106 3105 3104 3103 3101 3100 3099 3098
3100 3101 3101 3101 3102 3102 3102 3103 3103 3104 3104 3104 3104 3104 3105 3105 3106 3106 3107 3107 3108 3109 3110 3111 3112 3113 3114 3114 3115 3116 3116 3117 3118 3118 3119 3120 3120 3121 3121 3122 3122 3122 3122 3122 3122 3122 3122 3122 3122 3122 3122 3121 3121 3120 3120 3120 3119 3118 3117 3117 3116 3115 3114 3113 3112 3111 3110 3109 3108 3107 3106 3105 3104 3104 3103 3103 3102 3101 3100 3099 3098 3097 3096 3095 3094
3098 3098 3099 3099 3099 3100 3100 3100 3101 3101 3101 3101 3101 3101 3102 3102 3103 3104 3104 3104 3105 3106 3106 3107 3109 3110 3111 3112 3112 3113 3114 3115 3115 3116 3117 3117 3118 3118 3118 3119 3119 3119 3119 3119 3119 3119 3119 3119 3119 3119 3118 3118 3118 3117 3117 3116 3115 3115 3114 3113 3112 3111 3111 3110 3109 3107 3106 3105 3104 3102 3101 3101 3100 3099 3099 3098 3097 3095 3094 3094 3093 3091 3090 3090 3089
3095 3096 3096 3097 3097 3098 3098 3098 3099 3099 3099 3099 3099 3099 3100 3100 3101 3101 3101 3102 3102 3103 3104 3105 3106 3107 3108 3109 3110 3111 3112 3112 3113 3114 3114 3115 3115 3115 3115 3115 3115 3115 3115 3115 3115 3115 3115 3115 3115 3115 3115 3114 3114 3114 3113 3113 3112 3111 3111 3110 3109 3108 3107 3106 3105 3103 3102 3101 3100 3098 3097 3096 3095 3095 3094 3093 3092 3090 3089 3088 3087 3086 3084 3083 3083
3093 3093 3094 3094 3095 3096 3096 3096 3096 3096 3097 3097 3097 3097 3098 3098 3099 3099 3099 3100 3101 3101 3102 3103 3104 3105 3105 3106 3107 3108 3109 3110 3111 3111 3112 3112 3112 3112 3112 3112 3112 3112 3112 3112 3112 3112 3112 3111 3111 3111 3111 3110 3110 3109 3109 3109 3108 3107 3106 3106 3105 3104 3102 3101 3100 3099 3098 3097 3095 3094 3093 3092 3091 3089 3088 3087 3086 3085 3084 3082 3081 3080 3078 3077 3076
3090 3090 3091 3091 3092 3092 3093 3093 3093 3094 3094 3095 3095 3095 3096 3096 3097 3097 3097 3098 3098 3099 3100 3101 3102 3102 3103 3104 3105 3106 3107 3107 3108 3108 3109 3109 3110 3110 3110 3110 3110 3110 3110 3109 3109 3109 3108 3108 3108 3107 3107 3106 3106 3105 3105 3104 3103 3103 3102 3101 3100 3099 3098 3097 3095 3094 3093 3092 3090 3089 3088 3087 3086 3085 3083 3082 3081 3079 3078 3076 3075 3073 3072 3070 3068
3086 3087 3087 3087 3088 3088 3089 3089 3089 3090 3091 3092 3092 3093 3093 3093 3094 3094 3095 3095 3095 3096 3097 3098 3099 3099 3100 3101 3102 3103 3103 3104 3105 3105 3106 3106 3107 3107 3107 3107 3107 3106 3106 3106 3106 3105 3105 3104 3104 3104 3103 3102 3102 3101 3101 3100 3099 3098 3097 3096 3095 3094 3093 3091 3090 3089 3088 3086 3085 3084 3083 3082 3081 3079 3078 3076 3075 3073 3072 3070 3069 3067 3065 3063 3061
3082 3083 3083 3084 3084 3085 3085 3085 3085 3086 3087 3088 3089 3089 3090 3090 3091 3091 3092 3092 3092 3093 3094 3095 3095 3096 3097 3097 3098 3099 3100 3100 3101 3101 3102 3102 3103 3103 3103 3103 3103 3103 3102 3102 3102 3101 3101 3100 3100 3100 3099 3098 3098 3097 3097 3096 3095 3094 3092 3091 3090 3089 3088 3086 3085 3084 3082 3081 3080 3079 3077 3076 3075 3074 3072 3070 3069 3067 3065 3064 3062 3060 3058 3056 3055
3078 3078 3079 3080 3081 3081 3081 3081 3081 3082 3083 3084 3085 3085 3086 3087 3087 3088 3089 3089 3089 3091 3092 3092 3092 3093 3094 3094 3095 3096 3096 3097 3097 3097 3098 3098 3099 3099 3099 3099 3099 3099 3099 3098 3098 3097 3097 3096 3096 3096 3095 3094 3094 3093 3092 3092 3091 3090 3088 3087 3086 3084 3083 3082 3080 3079 3078 3076 3075 3074 3072 3071 3069 3068 3066 3065 3063 3061 3060 3058 3056 3054 3052 3050 3049
3073 3074 3074 3075 3076 3076 3077 3077 3078 3078 3079 3080 3081 3081 3082 3083 3084 3085 3085 3086 3087 3087 3088 3089 3089 3090 3090 3091 3092 3092 3093 3093 3094 3094 3094 3094 3095 3095 3095 3095 3095 3095 3095 3094 3094 3094 3093 3092 3092 3091 3091 3090 3090 3089 3088 3087 3086 3085 3084 3083 3081 3080 3078 3077 3075 3074 3073 3071 3070 3069 3067 3066 3064 3062 3061 3059 3057 3056 3054 3053 3051 3049 3047 3045 3043
3069 3069 3070 3070 3071 3071 3072 3073 3073 3074 3075 3076 3076 3077 3078 3079 3079 3080 3080 3081 3082 3083 3084 3084 3085 3086 3087 3087 3088 3089 3089 3090 3090 3090 3090 3091 3091 3091 3091 3092 3091 3091 3091 3091 3090 3090 3089 3088 3088 3087 3087 3086 3086 3085 3084 3083 3082 3081 3079 3078 3077 3075 3073 3072 3070 3069 3068 3066 3065 3064 3062 3061 3059 3057 3055 3054 3052 3051 3049 3048 3046 3044 3042 3040 3038
3064 3064 3065 3065 3066 3066 3067 3068 3068 3069 3070 3071 3071 3072 3073 3074 3074 3075 3075 3076 3077 3078 3079 3080 3081 3082 3082 3083 3084 3085 3085 3086 3086 3087 3087 3087 3087 3087 3087 3087 3087 3087 3087 3086 3086 3085 3085 3084 3084 3083 3083 3082 3081 3081 3080 3078 3077 3076 3075 3073 3072 3070 3068 3067 3065 3064 3063 3061 3060 3059 3057 3055 3054 3052 3050 3049 3047 3046 3044 3042 3040 3038 3036 3034 3032
3057 3058 3059 3059 3060 3061 3062 3062 3063 3064 3065 3065 3066 3067 3068 3069 3069 3069 3070 3071 3072 3073 3074 3075 3076 3077 3078 3079 3080 3080 3081 3081 3082 3082 3082 3083 3083 3083 3083 3083 3083 3082 3082 3082 3081 3081 3080 3080 3079 3079 3078 3078 3077 3076 3075 3074 3072 3071 3070 3068 3067 3065 3064 3062 3061 3059 3058 3056 3055 3054 3052 3050 3049 3047 3045 3043 3042 3040 3039 3037 3035 3033 3031 3029 3027
3051 3051 3052 3053 3054 3055 3055 3056 3057 3058 3059 3060 3061 3061 3062 3063 3064 3065 3065 3066 3067 3068 3070 3071 3072 3073 3074 3075 3075 3076 3076 3077 3077 3078 3078 3079 3078 3078 3078 3078 3078 3078 3078 3077 3077 3076 3076 3075 3075 3074 3074 3073 3072 3072 3070 3069 3067 3066 3064 3063 3062 3060 3059 3057 3056 3054 3053 3052 3050 3049 3047 3046 3044 3042 3040 3038 3037 3035 3033 3031 3029 3027 3025 3023 3021
3044 3044 3045 3045 3046 3047 3048 3049 3050 3051 3052 3053 3054 3055 3056 3058 3059 3060 3061 3061 3062 3064 3065 3066 3067 3068 3070 3070 3071 3072 3072 3073 3073 3074 3074 3074 3075 3074 3074 3074 3074 3074 3073 3073 3073 3072 3072 3071 3071 3070 3069 3069 3068 3067 3065 3064 3062 3061 3059 3058 3056 3055 3054 3052 3051 3050 3048 3047 3046 3044 3042 3041 3039 3037 3035 3033 3031 3029 3027 3025 3022 3020 3018 3016 3014
3036 3036 3037 3038 3038 3039 3041 3042 3043 3044 3045 3046 3047 3048 3050 3051 3052 3054 3055 3056 3057 3059 3060 3061 3062 3064 3065 3066 3067 3067 3068 3069 3069 3070 3070 3070 3071 3071 3070 3070 3070 3069 3069 3069 3068 3068 3067 3067 3067 3066 3065 3065 3064 3062 3061 3060 3058 3056 3055 3053 3052 3050 3049 3048 3047 3045 3044 3042 3041 3039 3038 3036 3034 3032 3030 3028 3026 3024 3022 3019 3016 3013 3011 3009 3007
3028 3028 3029 3030 3031 3032 3033 3034 3035 3037 3038 3039 3040 3041 3043 3044 3046 3048 3049 3050 3052 3053 3055 3056 3058 3059 3060 3061 3062 3063 3064 3065 3065 3065 3066 3066 3067 3066 3066 3065 3065 3065 3065 3064 3064 3064 3063 3063 3062 3062 3061 3060 3059 3058 3057 3055 3054 3052 3051 3049 3048 3047 3045 3044 3043 3042 3040 3038 3037 3035 3033 3031 3029 3027 3025 3023 3021 3018 3016 3013 3010 3007 3005 3003 3001
3020 3020 3021 3022 3023 3025 3025 3026 3027 3029 3030 3032 3033 3034 3036 3037 3039 3041 3042 3044 3045 3047 3049 3051 3053 3054 3055 3056 3057 3058 3059 3060 3061 3061 3062 3062 3062 3062 3061 3061 3060 3061 3060 3060 3059 3059 3059 3059 3058 3058 3057 3056 3055 3054 3053 3051 3050 3049 3047 3046 3045 3044 3042 3041 3040 3038 3037 3035 3033 3031 3029 3027 3025 3022 3020 3017 3015 3013 3010 3007 3004 3002 3000 2998 2997
3013 3014 3015 3016 3017 3017 3018 3019 3020 3021 3022 3024 3025 3027 3029 3030 3032 3034 3036 3037 3039 3041 3043 3045 3047 3048 3050 3051 3052 3053 3054 3055 3056 3056 3057 3057 3058 3058 3057 3056 3056 3056 3056 3056 3055 3055 3055 3055 3055 3054 3053 3052 3051 3050 3049 3048 3047 3046 3044 3043 3042 3041 3040 3038 3037 3035 3033 3031 3029 3027 3025 3022 3020 3017 3015 3012 3009 3007 3005 3002 3000 2998 2996 2995 2993
3006 3007 3008 3009 3009 3010 3010 3011 3012 3013 3014 3016 3018 3019 3021 3023 3025 3027 3029 3031 3033 3035 3036 3038 3040 3041 3043 3044 3046 3047 3049 3049 3050 3051 3052 3052 3053 3053 3053 3052 3052 3052 3052 3052 3052 3052 3052 3051 3051 3051 3050 3049 3048 3047 3046 3045 3044 3043 3042 3040 3039 3038 3037 3035 3033 3031 3029 3028 3025 3023 3021 3018 3015 3013 3010 3007 3005 3002 3001 2998 2996 2995 2993 2992 2990
2999 3000 3000 3001 3001 3002 3002 3003 3004 3005 3006 3008 3010 3012 3014 3016 3018 3021 3023 3025 3027 3029 3031 3032 3034 3035 3037 3038 3040 3042 3044 3044 3045 3046 3047 3048 3048 3049 3048 3048 3048 3048 3048 3048 3048 3048 3048 3048 3048 3047 3046 3045 3044 3044 3043 3042 3041 3040 3039 3038 3036 3035 3033 3032 3030 3028 3026 3024 3022 3020 3017 3014 3011 3008 3006 3003 3001 2999 2997 2995 2994 2992 2991 2989 2988
2993 2993 2993 2993 2994 2994 2995 2995 2996 2997 2999 3000 3002 3004 3006 3008 3011 3014 3016 3018 3020 3023 3025 3027 3029 3031 3033 3034 3036 3038 3039 3040 3041 3042 3043 3044 3044 3044 3045 3045 3045 3044 3045 3045 3045 3045 3045 3044 3044 3043 3043 3042 3042 3041 3040 3039 3038 3037 3036 3035 3034 3032 3030 3029 3027 3025 3023 3021 3019 3016 3013 3010 3007 3004 3002 3000 2998 2996 2994 2993 2991 2990 2988 2987 2985
2987 2987 2987 2987 2987 2987 2987 2988 2988 2989 2990 2992 2993 2996 2998 3000 3003 3006 3009 3012 3014 3017 3020 3022 3024 3026 3028 3030 3031 3033 3035 3036 3037 3038 3039 3039 3040 3041 3041 3041 3041 3041 3041 3041 3041 3041 3041 3041 3040 3040 3040 3039 3039 3038 3037 3036 3036 3035 3034 3032 3031 3029 3028 3026 3025 3023 3020 3018 3015 3012 3010 3007 3003 3001 2998 2996 2995 2993 2991 2990 2988 2987 2985 2984 2982
2982 2981 2981 2980 2979 2979 2979 2980 2980 2981 2982 2984 2986 2987 2990 2992 2995 2998 3001 3005 3008 3011 3014 3017 3019 3022 3023 3025 3027 3029 3031 3032 3034 3035 3035 3035 3036 3037 3037 3037 3037 3037 3037 3037 3037 3038 3038 3037 3037 3037 3037 3037 3036 3035 3035 3034 3033 3032 3031 3030 3029 3027 3026 3024 3022 3020 3018 3015 3012 3009 3006 3003 3000 2998 2996 2994 2992 2990 2989 2987 2986 2984 2982 2980 2978
2978 2976 2975 2974 2973 2972 2972 2972 2973 2974 2975 2976 2978 2980 2982 2985 2988 2991 2995 2998 3001 3005 3008 3011 3014 3016 3019 3021 3023 3025 3027 3028 3029 3030 3031 3032 3032 3033 3033 3033 3033 3033 3034 3034 3034 3034 3034 3035 3035 3035 3034 3034 3033 3033 3032 3032 3031 3030 3029 3028 3026 3025 3024 3022 3020 3017 3015 3012 3009 3006 3003 3000 2997 2995 2993 2991 2990 2988 2987 2985 2983 2981 2979 2977 2975
2975 2972 2970 2968 2967 2966 2965 2966 2967 2968 2969 2970 2971 2973 2975 2978 2982 2985 2989 2993 2996 2999 3003 3006 3009 3012 3014 3016 3019 3021 3023 3024 3025 3026 3027 3028 3029 3029 3029 3029 3030 3030 3030 3031 3031 3032 3032 3032 3032 3032 3032 3031 3031 3031 3030 3029 3029 3028 3027 3026 3024 3023 3022 3020 3017 3015 3012 3009 3006 3003 3001 2998 2995 2993 2991 2989 2987 2986 2984 2982 2980 2978 2976 2974 2972
2972 2969 2966 2963 2962 2961 2960 2960 2961 2962 2963 2964 2965 2967 2969 2972 2976 2980 2984 2988 2992 2995 2998 3002 3005 3007 3009 3012 3014 3017 3018 3019 3021 3022 3023 3024 3025 3025 3026 3026 3027 3027 3028 3028 3029 3029 3029 3030 3030 3029 3029 3029 3029 3028 3028 3027 3027 3026 3025 3024 3023 3022 3020 3018 3015 3012 3009 3006 3004 3001 2999 2996 2994 2991 2989 2987 2985 2983 2981 2979 2977 2974 2973 2971 2970
2970 2967 2964 2962 2960 2958 2957 2956 2956 2957 2958 2959 2960 2962 2964 2967 2971 2976 2980 2984 2988 2991 2995 2998 3000 3003 3005 3008 3011 3013 3014 3015 3017 3018 3019 3020 3021 3022 3022 3023 3024 3024 3025 3026 3027 3027 3027 3027 3027 3027 3027 3027 3027 3027 3026 3026 3025 3024 3023 3022 3021 3020 3018 3016 3013 3010 3007 3005 3002 3000 2997 2994 2992 2990 2987 2985 2982 2980 2978 2976 2974 2972 2970 2969 2968
2970 2967 2965 2962 2960 2958 2956 2955 2955 2955 2956 2956 2957 2958 2960 2963 2967 2972 2976 2981 2984 2988 2991 2994 2997 2999 3002 3005 3007 3009 3010 3011 3012 3014 3015 3016 3017 3019 3020 3021 3021 3022 3023 3024 3025 3025 3025 3025 3025 3025 3025 3025 3025 3025 3025 3024 3024 3023 3022 3021 3020 3018 3016 3013 3010 3008 3005 3003 3001 2999 2996 2993 2991 2988 2986 2983 2981 2979 2976 2974 2972 2970 2968 2967 2966
2971 2969 2966 2964 2962 2960 2958 2956 2955 2955 2955 2955 2956 2957 2959 2962 2966 2970 2975 2979 2983 2986 2989 2992 2994 2997 3000 3002 3004 3005 3006 3007 3008 3010 3012 3014 3015 3016 3018 3019 3020 3021 3022 3022 3023 3023 3023 3023 3023 3024 3024 3024 3024 3024 3023 3023 3022 3021 3020 3019 3018 3016 3014 3011 3009 3006 3004 3002 3000 2997 2995 2992 2989 2987 2984 2982 2979 2977 2975 2972 2970 2969 2967 2965 2964
2973 2971 2968 2966 2964 2962 2961 2959 2958 2957 2957 2957 2958 2959 2961 2964 2968 2972 2976 2979 2982 2985 2988 2990 2993 2995 2998 3000 3001 3002 3003 3004 3006 3007 3009 3012 3013 3015 3016 3017 3018 3019 3020 3020 3021 3021 3021 3021 3022 3022 3022 3022 3023 3023 3022 3022 3021 3020 3019 3018 3016 3015 3012 3010 3008 3006 3003 3001 2999 2997 2994 2991 2988 2986 2983 2980 2978 2976 2973 2971 2969 2967 2965 2964 2962
2976 2973 2971 2968 2967 2965 2964 2963 2962 2962 2961 2961 2962 2963 2965 2968 2971 2974 2977 2979 2982 2985 2987 2989 2991 2994 2996 2998 2999 3000 3002 3003 3005 3007 3008 3010 3012 3013 3014 3016 3017 3018 3018 3018 3018 3019 3019 3020 3020 3021 3021 3021 3021 3021 3021 3020 3020 3019 3018 3017 3015 3013 3010 3008 3007 3005 3003 3001 2998 2996 2993 2990 2988 2985 2982 2980 2977 2975 2972 2970 2968 2966 2964 2962 2960
2978 2976 2974 2972 2970 2968 2967 2967 2966 2966 2966 2966 2967 2968 2969 2971 2973 2976 2978 2980 2982 2984 2986 2988 2990 2992 2995 2997 2998 3000 3001 3002 3004 3006 3007 3009 3010 3012 3013 3014 3015 3016 3016 3016 3017 3018 3018 3019 3019 3019 3020 3020 3020 3020 3019 3019 3018 3018 3017 3015 3013 3011 3009 3007 3005 3004 3002 3000 2998 2995 2992 2990 2987 2984 2982 2979 2976 2974 2971 2969 2967 2965 2962 2960 2959
2981 2979 2977 2975 2973 2972 2971 2970 2970 2970 2970 2970 2971 2971 2972 2974 2975 2977 2979 2981 2982 2984 2986 2988 2990 2992 2994 2996 2998 2999 3000 3001 3003 3005 3006 3007 3009 3010 3012 3013 3014 3014 3014 3015 3016 3017 3017 3018 3018 3018 3018 3019 3019 3018 3018 3018 3017 3016 3015 3014 3012 3010 3008 3006 3004 3003 3001 2999 2997 2994 2992 2989 2987 2984 2981 2978 2976 2973 2970 2968 2965 2963 2961 2959 2958
2985 2983 2981 2979 2977 2976 2975 2974 2973 2973 2973 2973 2973 2974 2975 2976 2977 2979 2980 2981 2983 2985 2987 2989 2990 2992 2994 2996 2997 2999 3000 3001 3003 3004 3005 3007 3008 3009 3010 3011 3012 3013 3013 3014 3015 3016 3016 3016 3017 3017 3017 3017 3017 3017 3017 3016 3015 3014 3013 3012 3010 3008 3007 3005 3003 3002 3000 2998 2996 2994 2991 2989 2987 2984 2981 2978 2975 2973 2970 2967 2965 2962 2960 2959 2957
2987 2986 2984 2983 2982 2981 2980 2979 2978 2977 2977 2977 2977 2977 2978 2979 2980 2981 2982 2984 2985 2987 2988 2990 2992 2993 2995 2996 2998 2999 3000 3001 3003 3004 3005 3006 3007 3008 3009 3010 3011 3012 3013 3014 3014 3015 3015 3015 3016 3016 3016 3016 3016 3015 3015 3014 3013 3013 3012 3010 3008 3007 3006 3004 3002 3001 2999 2997 2995 2993 2991 2989 2986 2984 2981 2978 2975 2973 2970 2967 2964 2962 2960 2958 2956
2990 2988 2987 2986 2985 2984 2984 2983 2983 2982 2982 2982 2982 2982 2982 2983 2984 2985 2986 2987 2988 2989 2991 2992 2993 2994 2995 2996 2998 2999 3000 3001 3002 3003 3004 3005 3006 3007 3008 3009 3010 3011 3012 3013 3013 3014 3014 3014 3015 3015 3015 3015 3014 3014 3014 3013 3012 3011 3010 3009 3007 3006 3004 3003 3002 3000 2998 2996 2994 2992 2990 2988 2986 2983 2980 2978 2975 2973 2970 2967 2965 2962 2960 2958 2956
2992 2991 2990 2989 2988 2988 2987 2986 2986 2986 2986 2986 2986 2986 2987 2987 2987 2988 2989 2990 2990 2991 2992 2993 2994 2995 2996 2997 2998 2999 3000 3001 3002 3003 3004 3005 3005 3006 3007 3009 3010 3011 3011 3012 3012 3013 3013 3013 3013 3013 3013 3013 3013 3013 3012 3011 3010 3010 3009 3007 3006 3005 3003 3002 3001 2999 2997 2996 2994 2992 2989 2988 2986 2983 2980 2978 2975 2973 2971 2968 2965 2963 2961 2958 2956
2994 2993 2992 2992 2991 2990 2990 2989 2989 2989 2989 2989 2989 2989 2989 2990 2990 2990 2991 2991 2992 2993 2993 2994 2995 2996 2996 2997 2998 2999 3000 3001 3002 3002 3003 3004 3005 3006 3007 3008 3009 3010 3011 3011 3012 3012 3012 3012 3012 3012 3012 3012 3012 3012 3011 3010 3009 3008 3007 3006 3005 3003 3002 3001 2999 2998 2997 2995 2993 2991 2989 2987 2985 2983 2981 2978 2976 2973 2971 2968 2966 2964 2961 2959 2957